STARLINK-11527 [DTC] (62523 NORAD) Tracking and Keplerian Element Data

This shows tracking and keplerian element data for the satellite.

Feedback or suggestion? Click here.




ElementValue
Catalog62523
NameSTARLINK-11527 [DTC]
Epoch Orbit543
Epoch Day35.16668981
Epoch Year2025
RAAN313.4079
Inclination43.0018
Eccentricity0.0001262
Argument of Perigee303.534
Mean Anonmoly129.9662
Mean Motion15.77843709
Decay Rate0.00033766
L11 62523U 25004N 25035.16668981 .00033766 00000+0 19624-3 0 9998
L22 62523 43.0018 313.4079 0001262 303.5340 129.9662 15.77843709 5430



Live tracking and technical data element details for STARLINK-11527 [DTC] (NORAD 62523). STARLINK-11527 [DTC] can be tracked NOW for your location showing map with azimuth and elevation plus other details from your city location.







IsCatalogInMostPopularTable: catalog: 62523, numindb: 16
Update: records affected: 1



GetName: 62523 STARLINK-11527 [DTC]

Hit Count: updated at: Sun, 18 May 2025 22:13:18 GMT